User: anonymous   Login
Location: Unspecified
(0.0000°N, 0.0000°E)
Time: 19:17:11
(UTC+00:00)
Language:

Kosmos-1627 - Orbit

View from above orbital plane
View from above orbital plane
View from above satellite
View from above satellite

Ground track
Ground track

The orbit data is extracted from the following two-line orbital elements,

1 15505U 85011A   18169.21817501  .00000022  00000-0  70384-5 0  9992
2 15505  82.9224  55.4927 0041459 203.5557 269.7827 13.74339112674010
Epoch (UTC): 18 June 2018 05:14:10
Eccentricity: 0.0041459
inclination: 82.9224°
perigee height: 953 km
apogee height: 1014 km
right ascension of ascending node: 55.4927°
argument of perigee: 203.5557°
revolutions per day: 13.74339112
mean anomaly at epoch: 269.7827°
orbit number at epoch: 67401

The dashed part of the orbit path shows where the satellite is in the earth's shadow,  

DLR